When you browse on this site, cookies collect data to enhance your experience and personalize the content and advertising you see.
Visit our Privacy Policy to learn more. By continuing to use the site, you agree to this use of cookies and data.
  • In Österreich
  • Länderverzeichnis
  • Für 7 Tage
  • Wassertemperatur
  • Satellitenkarten
  • Wetterkarte
  • News
  • Widgets
  • user-avatar
    Anmelden

    Stündliche Wetter Zapadnyy

    Heute, 21 Juli, Sonntag

    Zeit Temperatur Niederschläge Wind Luftdruck Luftfeuchtigkeit
    00:00 +16°C° 0.1 mm 0 m/S 750 mmHg 86%
    01:00 +15°C° 0.1 mm 0 m/S 750 mmHg 87%
    02:00 +16°C° 0 mm 1 m/S 751 mmHg 86%
    03:00 +15°C° 0 mm 0 m/S 751 mmHg 86%
    04:00 +15°C° 0 mm 0 m/S 751 mmHg 87%
    05:00 +15°C° 0 mm 0 m/S 751 mmHg 87%
    06:00 +17°C° 0 mm 0 m/S 751 mmHg 81%
    07:00 +21°C° 0 mm 1 m/S 751 mmHg 75%
    08:00 +24°C° 0 mm 1 m/S 751 mmHg 70%
    09:00 +25°C° 0 mm 1 m/S 751 mmHg 64%
    10:00 +26°C° 0 mm 1 m/S 751 mmHg 58%
    11:00 +28°C° 0 mm 1 m/S 751 mmHg 52%
    12:00 +28°C° 0 mm 1 m/S 751 mmHg 50%
    13:00 +29°C° 0 mm 1 m/S 750 mmHg 48%
    14:00 +29°C° 0 mm 1 m/S 750 mmHg 46%
    15:00 +29°C° 0 mm 1 m/S 750 mmHg 48%
    16:00 +29°C° 0 mm 1 m/S 750 mmHg 50%
    17:00 +28°C° 0 mm 1 m/S 750 mmHg 51%
    18:00 +27°C° 0 mm 1 m/S 750 mmHg 58%
    19:00 +25°C° 0 mm 1 m/S 749 mmHg 65%
    20:00 +23°C° 0 mm 1 m/S 749 mmHg 71%
    21:00 +22°C° 0.2 mm 1 m/S 749 mmHg 75%
    22:00 +21°C° 0.2 mm 1 m/S 749 mmHg 78%
    23:00 +20°C° 0.2 mm 2 m/S 750 mmHg 81%

    Morgen, 22 Juli, Montag

    Zeit Temperatur Niederschläge Wind Luftdruck Luftfeuchtigkeit
    00:00 +19°C° 0.1 mm 2 m/S 749 mmHg 84%
    01:00 +20°C° 0.1 mm 1 m/S 749 mmHg 87%
    02:00 +20°C° 0.1 mm 1 m/S 749 mmHg 90%
    03:00 +19°C° 0.4 mm 1 m/S 749 mmHg 92%
    04:00 +19°C° 0.4 mm 1 m/S 749 mmHg 94%
    05:00 +19°C° 0.4 mm 1 m/S 748 mmHg 95%
    06:00 +18°C° 0.2 mm 2 m/S 749 mmHg 95%
    07:00 +19°C° 0.2 mm 2 m/S 749 mmHg 95%
    08:00 +19°C° 0.2 mm 3 m/S 749 mmHg 95%
    09:00 +19°C° 1 mm 2 m/S 749 mmHg 93%
    10:00 +19°C° 1 mm 2 m/S 749 mmHg 91%
    11:00 +21°C° 1 mm 1 m/S 749 mmHg 90%
    12:00 +21°C° 0.6 mm 2 m/S 749 mmHg 85%
    13:00 +23°C° 0.6 mm 2 m/S 749 mmHg 80%
    14:00 +24°C° 0.6 mm 3 m/S 749 mmHg 76%
    15:00 +24°C° 0.7 mm 3 m/S 749 mmHg 78%
    16:00 +24°C° 0.7 mm 3 m/S 749 mmHg 79%
    17:00 +22°C° 0.7 mm 4 m/S 749 mmHg 81%
    18:00 +21°C° 0.1 mm 3 m/S 749 mmHg 84%
    19:00 +20°C° 0.1 mm 3 m/S 749 mmHg 87%
    20:00 +19°C° 0.1 mm 3 m/S 749 mmHg 90%
    21:00 +18°C° 0 mm 3 m/S 749 mmHg 92%
    22:00 +17°C° 0 mm 3 m/S 749 mmHg 93%
    23:00 +16°C° 0 mm 3 m/S 749 mmHg 95%

    übermorgen, 23 Juli, Dienstag

    Zeit Temperatur Niederschläge Wind Luftdruck Luftfeuchtigkeit
    00:00 +16°C° 0 mm 3 m/S 749 mmHg 94%
    01:00 +14°C° 0 mm 3 m/S 749 mmHg 94%
    02:00 +14°C° 0 mm 3 m/S 749 mmHg 93%
    03:00 +13°C° 0 mm 3 m/S 749 mmHg 95%
    04:00 +13°C° 0 mm 3 m/S 749 mmHg 96%
    05:00 +12°C° 0 mm 3 m/S 749 mmHg 97%
    06:00 +13°C° 0 mm 3 m/S 749 mmHg 94%
    07:00 +14°C° 0 mm 3 m/S 749 mmHg 90%
    08:00 +15°C° 0 mm 4 m/S 749 mmHg 87%
    09:00 +17°C° 0 mm 4 m/S 749 mmHg 85%
    10:00 +17°C° 0 mm 4 m/S 749 mmHg 83%
    11:00 +18°C° 0 mm 4 m/S 749 mmHg 81%
    12:00 +19°C° 0 mm 4 m/S 749 mmHg 79%
    13:00 +19°C° 0 mm 4 m/S 749 mmHg 76%
    14:00 +20°C° 0 mm 4 m/S 748 mmHg 73%
    15:00 +20°C° 0 mm 3 m/S 748 mmHg 74%
    16:00 +20°C° 0 mm 3 m/S 748 mmHg 76%
    17:00 +20°C° 0 mm 2 m/S 748 mmHg 77%
    18:00 +19°C° 0 mm 2 m/S 748 mmHg 83%
    19:00 +18°C° 0 mm 2 m/S 748 mmHg 88%
    20:00 +17°C° 0 mm 2 m/S 748 mmHg 94%
    21:00 +17°C° 0 mm 2 m/S 748 mmHg 95%
    22:00 +16°C° 0 mm 2 m/S 748 mmHg 96%
    23:00 +16°C° 0 mm 2 m/S 748 mmHg 97%

    24 Juli, Mittwoch

    Zeit Temperatur Niederschläge Wind Luftdruck Luftfeuchtigkeit
    00:00 +15°C° 0 mm 2 m/S 748 mmHg 97%
    01:00 +15°C° 0 mm 2 m/S 748 mmHg 97%
    02:00 +15°C° 0 mm 2 m/S 748 mmHg 97%
    03:00 +15°C° 0 mm 2 m/S 748 mmHg 97%
    04:00 +15°C° 0 mm 2 m/S 748 mmHg 97%
    05:00 +15°C° 0 mm 2 m/S 749 mmHg 97%
    06:00 +16°C° 0 mm 2 m/S 749 mmHg 92%
    07:00 +18°C° 0 mm 2 m/S 749 mmHg 86%
    08:00 +20°C° 0 mm 3 m/S 749 mmHg 81%
    09:00 +21°C° 0 mm 3 m/S 749 mmHg 73%
    10:00 +24°C° 0 mm 3 m/S 749 mmHg 66%
    11:00 +26°C° 0 mm 4 m/S 749 mmHg 58%
    12:00 +26°C° 0 mm 4 m/S 749 mmHg 56%
    13:00 +27°C° 0 mm 4 m/S 749 mmHg 54%
    14:00 +27°C° 0 mm 4 m/S 749 mmHg 52%
    15:00 +27°C° 0 mm 4 m/S 749 mmHg 54%
    16:00 +27°C° 0 mm 4 m/S 749 mmHg 56%
    17:00 +26°C° 0 mm 4 m/S 749 mmHg 58%
    18:00 +25°C° 0 mm 3 m/S 749 mmHg 66%
    19:00 +22°C° 0 mm 3 m/S 749 mmHg 73%
    20:00 +20°C° 0 mm 2 m/S 749 mmHg 80%
    21:00 +19°C° 0 mm 2 m/S 750 mmHg 83%
    22:00 +18°C° 0 mm 2 m/S 750 mmHg 86%
    23:00 +17°C° 0 mm 2 m/S 751 mmHg 89%

    25 Juli, Donnerstag

    Zeit Temperatur Niederschläge Wind Luftdruck Luftfeuchtigkeit
    00:00 +17°C° 0 mm 2 m/S 751 mmHg 90%
    01:00 +16°C° 0 mm 2 m/S 751 mmHg 91%
    02:00 +16°C° 0 mm 2 m/S 751 mmHg 92%
    03:00 +16°C° 0 mm 2 m/S 751 mmHg 92%
    04:00 +16°C° 0 mm 2 m/S 751 mmHg 92%
    05:00 +15°C° 0 mm 2 m/S 751 mmHg 92%
    06:00 +17°C° 0 mm 2 m/S 752 mmHg 85%
    07:00 +19°C° 0 mm 2 m/S 752 mmHg 78%
    08:00 +21°C° 0 mm 2 m/S 752 mmHg 71%
    09:00 +24°C° 0 mm 3 m/S 752 mmHg 64%
    10:00 +25°C° 0 mm 3 m/S 752 mmHg 57%
    11:00 +27°C° 0 mm 3 m/S 752 mmHg 50%
    12:00 +27°C° 0 mm 3 m/S 752 mmHg 49%
    13:00 +28°C° 0 mm 4 m/S 752 mmHg 48%
    14:00 +28°C° 0 mm 4 m/S 751 mmHg 47%
    15:00 +28°C° 0 mm 4 m/S 751 mmHg 50%
    16:00 +28°C° 0 mm 3 m/S 751 mmHg 53%
    17:00 +27°C° 0 mm 3 m/S 751 mmHg 56%
    18:00 +26°C° 0 mm 3 m/S 751 mmHg 64%
    19:00 +24°C° 0 mm 3 m/S 751 mmHg 71%
    20:00 +21°C° 0 mm 2 m/S 751 mmHg 79%
    21:00 +20°C° 0 mm 2 m/S 751 mmHg 80%
    22:00 +19°C° 0 mm 2 m/S 751 mmHg 81%
    23:00 +17°C° 0 mm 2 m/S 752 mmHg 82%

    26 Juli, Freitag

    Zeit Temperatur Niederschläge Wind Luftdruck Luftfeuchtigkeit
    00:00 +17°C° 0 mm 2 m/S 752 mmHg 84%
    01:00 +17°C° 0 mm 2 m/S 752 mmHg 85%
    02:00 +16°C° 0 mm 2 m/S 752 mmHg 86%
    03:00 +16°C° 0 mm 2 m/S 752 mmHg 88%
    04:00 +16°C° 0 mm 2 m/S 752 mmHg 89%
    05:00 +16°C° 0 mm 2 m/S 752 mmHg 91%
    06:00 +18°C° 0 mm 2 m/S 752 mmHg 85%
    07:00 +20°C° 0 mm 2 m/S 752 mmHg 79%
    08:00 +21°C° 0 mm 3 m/S 752 mmHg 73%
    09:00 +24°C° 0 mm 3 m/S 752 mmHg 66%
    10:00 +26°C° 0 mm 3 m/S 752 mmHg 58%
    11:00 +27°C° 0 mm 3 m/S 752 mmHg 50%
    12:00 +28°C° 0 mm 3 m/S 751 mmHg 49%
    13:00 +28°C° 0 mm 3 m/S 751 mmHg 49%
    14:00 +29°C° 0 mm 3 m/S 751 mmHg 48%
    15:00 +28°C° 0 mm 3 m/S 751 mmHg 50%
    16:00 +28°C° 0 mm 3 m/S 750 mmHg 53%
    17:00 +28°C° 0 mm 3 m/S 750 mmHg 55%
    18:00 +26°C° 0 mm 2 m/S 750 mmHg 64%
    19:00 +24°C° 0 mm 2 m/S 750 mmHg 73%
    20:00 +21°C° 0 mm 2 m/S 750 mmHg 82%
    21:00 +21°C° 0 mm 2 m/S 750 mmHg 85%
    22:00 +20°C° 0 mm 2 m/S 750 mmHg 87%
    23:00 +19°C° 0 mm 2 m/S 751 mmHg 90%
    Mehr zeigen